Precipitable_Water
0.96 0.93 0.97 0.99 0.99 0.99 1.00 1.04 1.06 1.11 1.12 1.13 1.14 1.16 1.18 1.18 1.21 1.20 1.22 1.21 1.26 1.27 1.26 1.25 1.32 1.37 1.37 1.36 1.28 1.27 1.29 1.34 1.39 1.45 1.49 1.51 1.54 1.50 1.52 1.54 1.47 1.44 1.41 1.37 1.36 1.36 1.38 1.34 1.35 1.39 1.39 1.33 1.33 1.31 1.30 1.35 1.39 1.38 1.41 1.44 1.43 1.43 1.38 1.28 1.21 1.23 1.36 1.39 1.38 1.37 1.40 1.39 1.27 1.23 1.21 1.25 1.30 1.27 1.25 1.36 1.40 1.34 1.30 1.34 1.42
0.92 0.92 0.96 0.98 0.97 0.98 1.00 1.06 1.09 1.13 1.11 1.15 1.15 1.18 1.20 1.23 1.23 1.25 1.19 1.20 1.23 1.27 1.29 1.31 1.33 1.36 1.37 1.39 1.33 1.31 1.31 1.31 1.38 1.39 1.44 1.48 1.50 1.53 1.48 1.48 1.49 1.44 1.42 1.33 1.33 1.32 1.35 1.35 1.31 1.35 1.38 1.31 1.29 1.25 1.26 1.34 1.36 1.34 1.39 1.43 1.42 1.45 1.44 1.34 1.25 1.25 1.24 1.37 1.33 1.35 1.39 1.38 1.28 1.30 1.23 1.20 1.27 1.32 1.25 1.32 1.40 1.41 1.40 1.39 1.40
1.00 0.99 0.96 0.97 0.97 1.00 1.02 1.06 1.10 1.11 1.11 1.13 1.15 1.17 1.22 1.25 1.28 1.22 1.19 1.20 1.26 1.27 1.32 1.36 1.36 1.36 1.35 1.37 1.37 1.31 1.32 1.30 1.34 1.36 1.37 1.44 1.46 1.47 1.48 1.45 1.44 1.41 1.38 1.36 1.30 1.33 1.31 1.31 1.32 1.32 1.34 1.28 1.25 1.21 1.23 1.30 1.34 1.30 1.35 1.42 1.41 1.44 1.48 1.41 1.34 1.25 1.23 1.30 1.40 1.31 1.31 1.36 1.20 1.31 1.26 1.28 1.32 1.34 1.32 1.34 1.37 1.41 1.43 1.44 1.39
1.20 1.12 1.04 1.00 0.99 1.00 1.00 1.03 1.07 1.08 1.08 1.10 1.12 1.14 1.18 1.23 1.26 1.20 1.19 1.21 1.26 1.32 1.35 1.39 1.41 1.38 1.34 1.34 1.35 1.32 1.29 1.29 1.28 1.30 1.32 1.37 1.45 1.45 1.45 1.45 1.44 1.44 1.41 1.38 1.32 1.31 1.27 1.27 1.29 1.29 1.28 1.23 1.23 1.21 1.20 1.25 1.29 1.31 1.31 1.40 1.41 1.42 1.49 1.49 1.39 1.35 1.37 1.30 1.40 1.39 1.41 1.38 1.28 1.39 1.36 1.33 1.30 1.32 1.33 1.37 1.42 1.39 1.40 1.39 1.40
1.37 1.29 1.15 1.06 1.08 1.08 1.06 1.07 1.07 1.08 1.07 1.09 1.11 1.12 1.14 1.17 1.22 1.17 1.17 1.15 1.19 1.28 1.30 1.35 1.38 1.38 1.34 1.32 1.32 1.31 1.29 1.27 1.26 1.25 1.28 1.33 1.38 1.44 1.43 1.43 1.42 1.45 1.44 1.39 1.36 1.33 1.30 1.25 1.27 1.26 1.24 1.20 1.21 1.18 1.18 1.18 1.26 1.31 1.30 1.36 1.40 1.41 1.43 1.50 1.46 1.38 1.36 1.33 1.39 1.43 1.45 1.45 1.47 1.44 1.42 1.34 1.32 1.35 1.39 1.37 1.39 1.40 1.38 1.39 1.41
1.41 1.41 1.34 1.19 1.12 1.12 1.14 1.13 1.13 1.14 1.14 1.13 1.14 1.14 1.14 1.13 1.18 1.20 1.16 1.12 1.12 1.18 1.26 1.26 1.28 1.31 1.30 1.30 1.30 1.31 1.32 1.30 1.26 1.24 1.23 1.27 1.33 1.39 1.44 1.41 1.41 1.43 1.46 1.43 1.40 1.38 1.34 1.30 1.29 1.26 1.22 1.17 1.17 1.19 1.16 1.16 1.21 1.26 1.29 1.32 1.37 1.40 1.39 1.46 1.50 1.45 1.37 1.39 1.38 1.40 1.46 1.43 1.41 1.43 1.50 1.46 1.40 1.37 1.36 1.44 1.45 1.42 1.37 1.34 1.36
1.43 1.44 1.43 1.36 1.26 1.19 1.18 1.17 1.21 1.24 1.24 1.21 1.21 1.23 1.20 1.18 1.18 1.21 1.23 1.18 1.15 1.13 1.22 1.25 1.25 1.28 1.29 1.27 1.25 1.27 1.29 1.29 1.29 1.27 1.23 1.23 1.26 1.30 1.35 1.39 1.39 1.41 1.44 1.44 1.44 1.44 1.39 1.37 1.33 1.29 1.22 1.20 1.19 1.18 1.16 1.14 1.17 1.20 1.25 1.28 1.31 1.35 1.35 1.39 1.46 1.43 1.42 1.40 1.41 1.43 1.45 1.50 1.48 1.41 1.52 1.55 1.51 1.46 1.38 1.33 1.30 1.37 1.42 1.40 1.37
1.43 1.45 1.47 1.47 1.43 1.36 1.30 1.28 1.27 1.29 1.33 1.34 1.31 1.28 1.27 1.23 1.21 1.25 1.31 1.26 1.20 1.21 1.22 1.30 1.31 1.30 1.33 1.32 1.31 1.31 1.30 1.29 1.30 1.30 1.26 1.22 1.24 1.27 1.30 1.34 1.36 1.39 1.40 1.41 1.42 1.46 1.48 1.42 1.38 1.33 1.27 1.24 1.22 1.22 1.20 1.15 1.15 1.16 1.24 1.26 1.28 1.29 1.29 1.34 1.39 1.42 1.39 1.39 1.39 1.40 1.41 1.43 1.49 1.52 1.54 1.55 1.50 1.47 1.45 1.34 1.23 1.25 1.32 1.42 1.45
1.46 1.47 1.50 1.50 1.51 1.52 1.48 1.44 1.43 1.38 1.39 1.42 1.38 1.35 1.33 1.30 1.30 1.32 1.35 1.38 1.33 1.32 1.32 1.34 1.38 1.36 1.38 1.41 1.40 1.39 1.34 1.31 1.31 1.31 1.30 1.26 1.23 1.25 1.29 1.27 1.29 1.34 1.38 1.38 1.39 1.43 1.52 1.50 1.41 1.39 1.34 1.28 1.26 1.25 1.23 1.21 1.17 1.14 1.20 1.24 1.23 1.25 1.26 1.29 1.32 1.38 1.38 1.37 1.38 1.42 1.40 1.41 1.44 1.44 1.42 1.43 1.43 1.39 1.46 1.45 1.36 1.37 1.37 1.34 1.39
1.46 1.49 1.51 1.53 1.58 1.62 1.59 1.55 1.52 1.52 1.48 1.48 1.49 1.46 1.38 1.38 1.37 1.36 1.41 1.46 1.47 1.44 1.43 1.44 1.47 1.48 1.44 1.45 1.47 1.45 1.42 1.38 1.32 1.31 1.32 1.30 1.26 1.24 1.29 1.29 1.26 1.28 1.34 1.36 1.37 1.41 1.45 1.51 1.44 1.39 1.37 1.32 1.28 1.27 1.24 1.22 1.23 1.22 1.22 1.22 1.20 1.21 1.22 1.22 1.26 1.32 1.33 1.32 1.33 1.35 1.32 1.32 1.38 1.45 1.43 1.47 1.55 1.55 1.47 1.41 1.34 1.39 1.37 1.32 1.35
1.46 1.49 1.51 1.58 1.63 1.65 1.64 1.58 1.57 1.54 1.53 1.53 1.58 1.58 1.54 1.50 1.46 1.46 1.46 1.52 1.57 1.59 1.57 1.56 1.56 1.60 1.59 1.54 1.50 1.49 1.47 1.46 1.41 1.33 1.30 1.29 1.30 1.27 1.23 1.26 1.27 1.24 1.27 1.32 1.33 1.36 1.41 1.49 1.49 1.43 1.37 1.35 1.32 1.29 1.27 1.24 1.22 1.23 1.26 1.29 1.27 1.22 1.18 1.18 1.22 1.28 1.30 1.30 1.35 1.35 1.32 1.33 1.39 1.43 1.46 1.50 1.51 1.54 1.52 1.48 1.41 1.36 1.26 1.18 1.10
1.40 1.46 1.52 1.60 1.63 1.64 1.61 1.59 1.55 1.54 1.55 1.55 1.56 1.59 1.58 1.55 1.50 1.48 1.50 1.50 1.55 1.61 1.60 1.59 1.61 1.62 1.67 1.66 1.62 1.62 1.59 1.52 1.49 1.43 1.37 1.30 1.27 1.29 1.29 1.24 1.26 1.24 1.20 1.24 1.30 1.33 1.36 1.41 1.46 1.45 1.41 1.35 1.34 1.32 1.30 1.28 1.26 1.25 1.26 1.28 1.29 1.27 1.27 1.25 1.20 1.20 1.27 1.32 1.34 1.35 1.34 1.34 1.39 1.43 1.41 1.45 1.50 1.49 1.48 1.47 1.39 1.31 1.25 1.18 1.14
1.33 1.40 1.48 1.52 1.55 1.58 1.58 1.54 1.52 1.52 1.52 1.53 1.56 1.60 1.57 1.52 1.47 1.46 1.46 1.49 1.54 1.53 1.55 1.59 1.59 1.62 1.65 1.66 1.66 1.69 1.70 1.68 1.58 1.53 1.47 1.40 1.33 1.27 1.29 1.30 1.26 1.25 1.22 1.19 1.23 1.27 1.29 1.31 1.37 1.43 1.40 1.39 1.36 1.35 1.32 1.29 1.29 1.29 1.30 1.31 1.31 1.28 1.24 1.28 1.33 1.30 1.33 1.34 1.36 1.37 1.38 1.43 1.43 1.44 1.47 1.47 1.50 1.40 1.42 1.38 1.36 1.32 1.28 1.20 1.18
1.25 1.33 1.38 1.43 1.47 1.51 1.51 1.49 1.47 1.47 1.49 1.50 1.50 1.49 1.50 1.47 1.44 1.46 1.50 1.52 1.50 1.52 1.55 1.57 1.60 1.63 1.62 1.64 1.67 1.71 1.73 1.75 1.70 1.63 1.57 1.51 1.45 1.37 1.29 1.31 1.31 1.27 1.26 1.23 1.21 1.22 1.24 1.23 1.28 1.34 1.37 1.39 1.38 1.37 1.35 1.33 1.31 1.30 1.31 1.33 1.35 1.35 1.31 1.25 1.27 1.28 1.35 1.40 1.44 1.40 1.48 1.51 1.46 1.52 1.57 1.57 1.49 1.42 1.38 1.32 1.32 1.28 1.25 1.22 1.25
1.23 1.28 1.30 1.35 1.41 1.46 1.46 1.44 1.43 1.46 1.48 1.49 1.47 1.44 1.43 1.44 1.47 1.49 1.51 1.52 1.52 1.51 1.55 1.58 1.61 1.64 1.66 1.66 1.68 1.69 1.70 1.77 1.74 1.70 1.64 1.58 1.54 1.50 1.44 1.36 1.32 1.32 1.33 1.34 1.31 1.25 1.24 1.24 1.26 1.30 1.35 1.39 1.38 1.38 1.37 1.36 1.34 1.31 1.30 1.30 1.35 1.40 1.38 1.32 1.27 1.26 1.28 1.35 1.46 1.51 1.53 1.57 1.56 1.57 1.60 1.63 1.58 1.56 1.49 1.38 1.36 1.37 1.35 1.34 1.28
1.21 1.26 1.28 1.30 1.33 1.38 1.41 1.41 1.41 1.43 1.44 1.45 1.41 1.39 1.42 1.44 1.46 1.54 1.56 1.59 1.63 1.64 1.65 1.66 1.63 1.64 1.68 1.70 1.65 1.60 1.65 1.75 1.74 1.71 1.71 1.68 1.62 1.57 1.54 1.47 1.38 1.32 1.33 1.35 1.38 1.40 1.34 1.28 1.26 1.29 1.34 1.40 1.39 1.38 1.39 1.40 1.36 1.32 1.28 1.31 1.35 1.41 1.44 1.44 1.39 1.33 1.30 1.33 1.44 1.51 1.58 1.62 1.62 1.61 1.64 1.66 1.66 1.59 1.52 1.47 1.45 1.39 1.30 1.14 0.99
1.13 1.19 1.24 1.32 1.36 1.42 1.45 1.43 1.41 1.42 1.44 1.43 1.41 1.41 1.43 1.49 1.55 1.60 1.55 1.56 1.59 1.60 1.59 1.63 1.67 1.68 1.66 1.66 1.59 1.60 1.64 1.71 1.72 1.72 1.73 1.74 1.71 1.64 1.59 1.54 1.48 1.40 1.34 1.36 1.35 1.39 1.44 1.40 1.33 1.30 1.32 1.37 1.39 1.35 1.37 1.40 1.38 1.33 1.31 1.32 1.35 1.36 1.39 1.48 1.48 1.42 1.36 1.38 1.46 1.52 1.59 1.62 1.64 1.66 1.67 1.69 1.66 1.59 1.50 1.37 1.29 1.28 1.15 1.00 0.97
1.06 1.15 1.24 1.36 1.43 1.48 1.50 1.49 1.46 1.45 1.44 1.41 1.43 1.48 1.54 1.59 1.59 1.63 1.55 1.54 1.55 1.60 1.63 1.62 1.64 1.64 1.62 1.62 1.61 1.57 1.58 1.69 1.71 1.70 1.71 1.74 1.74 1.71 1.67 1.59 1.50 1.46 1.40 1.39 1.40 1.36 1.37 1.46 1.46 1.36 1.29 1.33 1.37 1.32 1.34 1.38 1.38 1.36 1.33 1.31 1.31 1.31 1.36 1.46 1.49 1.48 1.44 1.42 1.48 1.52 1.56 1.60 1.63 1.64 1.64 1.63 1.59 1.57 1.44 1.24 1.28 1.26 1.13 1.07 0.93
1.09 1.11 1.22 1.38 1.45 1.49 1.53 1.53 1.50 1.48 1.46 1.48 1.54 1.54 1.55 1.58 1.64 1.67 1.63 1.62 1.58 1.62 1.66 1.62 1.62 1.64 1.65 1.65 1.65 1.60 1.60 1.66 1.68 1.68 1.69 1.70 1.71 1.73 1.73 1.68 1.57 1.48 1.42 1.39 1.41 1.36 1.36 1.45 1.47 1.39 1.36 1.36 1.37 1.34 1.34 1.35 1.37 1.36 1.32 1.30 1.27 1.28 1.35 1.43 1.43 1.43 1.42 1.42 1.47 1.53 1.55 1.61 1.64 1.65 1.64 1.61 1.58 1.55 1.47 1.39 1.34 1.23 1.11 1.05 0.96
1.18 1.23 1.26 1.35 1.46 1.49 1.51 1.52 1.53 1.53 1.51 1.56 1.60 1.60 1.62 1.61 1.61 1.59 1.60 1.60 1.58 1.58 1.59 1.60 1.60 1.62 1.67 1.66 1.65 1.64 1.62 1.65 1.68 1.66 1.67 1.67 1.69 1.73 1.76 1.68 1.57 1.51 1.46 1.38 1.34 1.33 1.33 1.44 1.44 1.39 1.35 1.39 1.37 1.35 1.36 1.35 1.35 1.35 1.36 1.32 1.27 1.26 1.42 1.44 1.47 1.47 1.44 1.45 1.51 1.56 1.57 1.64 1.66 1.67 1.62 1.57 1.55 1.52 1.49 1.45 1.36 1.26 1.16 1.08 0.96
1.26 1.29 1.29 1.30 1.39 1.47 1.50 1.53 1.54 1.57 1.58 1.55 1.56 1.58 1.60 1.57 1.58 1.58 1.56 1.58 1.58 1.58 1.58 1.59 1.59 1.61 1.66 1.69 1.67 1.67 1.66 1.63 1.66 1.64 1.62 1.63 1.65 1.67 1.67 1.63 1.61 1.61 1.58 1.46 1.37 1.32 1.34 1.34 1.31 1.37 1.39 1.40 1.38 1.34 1.34 1.35 1.38 1.39 1.38 1.36 1.37 1.41 1.48 1.43 1.50 1.52 1.51 1.51 1.54 1.57 1.61 1.66 1.67 1.66 1.59 1.53 1.50 1.51 1.51 1.46 1.39 1.32 1.24 1.09 0.92
1.31 1.31 1.30 1.30 1.36 1.45 1.49 1.52 1.55 1.54 1.55 1.56 1.54 1.52 1.58 1.62 1.61 1.60 1.61 1.59 1.56 1.57 1.60 1.60 1.60 1.61 1.66 1.70 1.71 1.69 1.71 1.68 1.69 1.63 1.60 1.60 1.62 1.64 1.64 1.60 1.62 1.64 1.63 1.58 1.52 1.43 1.36 1.35 1.33 1.35 1.34 1.38 1.34 1.30 1.31 1.34 1.37 1.42 1.42 1.44 1.47 1.48 1.45 1.48 1.56 1.56 1.55 1.57 1.58 1.59 1.62 1.63 1.62 1.61 1.58 1.52 1.51 1.53 1.52 1.44 1.37 1.33 1.32 1.17 0.99
1.34 1.33 1.31 1.32 1.35 1.40 1.48 1.52 1.53 1.55 1.55 1.57 1.56 1.53 1.57 1.59 1.62 1.65 1.63 1.61 1.60 1.58 1.59 1.62 1.61 1.60 1.63 1.67 1.71 1.72 1.73 1.74 1.71 1.64 1.60 1.59 1.61 1.64 1.64 1.65 1.69 1.71 1.63 1.55 1.56 1.57 1.55 1.51 1.46 1.40 1.35 1.37 1.30 1.23 1.26 1.33 1.38 1.41 1.46 1.46 1.47 1.48 1.49 1.51 1.57 1.53 1.54 1.55 1.56 1.56 1.59 1.61 1.59 1.59 1.61 1.56 1.57 1.58 1.51 1.42 1.38 1.36 1.33 1.19 1.03
1.35 1.34 1.32 1.33 1.35 1.40 1.49 1.55 1.57 1.57 1.57 1.57 1.57 1.54 1.53 1.55 1.59 1.60 1.61 1.60 1.58 1.57 1.61 1.63 1.63 1.60 1.59 1.62 1.66 1.70 1.75 1.76 1.74 1.67 1.62 1.62 1.62 1.64 1.65 1.67 1.71 1.69 1.69 1.65 1.65 1.69 1.68 1.70 1.67 1.58 1.48 1.43 1.31 1.22 1.23 1.29 1.33 1.36 1.47 1.50 1.50 1.51 1.51 1.51 1.51 1.50 1.50 1.50 1.52 1.53 1.54 1.60 1.58 1.57 1.60 1.62 1.62 1.57 1.47 1.41 1.40 1.37 1.30 1.16 1.03
1.30 1.33 1.36 1.39 1.40 1.42 1.49 1.57 1.61 1.62 1.64 1.62 1.56 1.56 1.55 1.56 1.52 1.57 1.59 1.59 1.58 1.55 1.59 1.64 1.62 1.59 1.60 1.57 1.59 1.64 1.69 1.71 1.74 1.74 1.67 1.62 1.62 1.64 1.65 1.67 1.70 1.75 1.74 1.72 1.75 1.79 1.81 1.86 1.88 1.78 1.71 1.64 1.51 1.35 1.26 1.25 1.29 1.35 1.42 1.45 1.49 1.52 1.52 1.51 1.49 1.50 1.47 1.46 1.49 1.52 1.54 1.62 1.61 1.63 1.65 1.67 1.64 1.56 1.45 1.41 1.40 1.34 1.28 1.12 1.05
1.33 1.37 1.40 1.42 1.42 1.45 1.46 1.54 1.60 1.62 1.61 1.62 1.61 1.62 1.60 1.59 1.56 1.57 1.57 1.56 1.57 1.56 1.55 1.57 1.59 1.60 1.60 1.62 1.64 1.67 1.70 1.70 1.69 1.72 1.67 1.62 1.61 1.61 1.62 1.67 1.72 1.74 1.74 1.73 1.76 1.80 1.86 1.92 1.94 1.93 1.88 1.81 1.76 1.68 1.54 1.43 1.40 1.40 1.44 1.49 1.50 1.52 1.53 1.53 1.53 1.52 1.49 1.49 1.52 1.51 1.57 1.63 1.61 1.67 1.68 1.63 1.57 1.48 1.42 1.37 1.35 1.28 1.17 1.05 1.00
1.27 1.28 1.32 1.38 1.42 1.44 1.44 1.48 1.53 1.60 1.61 1.62 1.63 1.63 1.63 1.63 1.61 1.58 1.56 1.54 1.54 1.56 1.57 1.58 1.58 1.58 1.57 1.60 1.63 1.63 1.63 1.64 1.65 1.69 1.71 1.65 1.62 1.64 1.66 1.66 1.67 1.72 1.72 1.68 1.71 1.80 1.85 1.91 1.91 1.92 1.92 1.92 1.91 1.91 1.87 1.81 1.68 1.59 1.56 1.55 1.55 1.56 1.59 1.57 1.52 1.50 1.50 1.50 1.51 1.55 1.66 1.68 1.69 1.65 1.57 1.54 1.52 1.47 1.44 1.38 1.33 1.25 1.13 1.06 0.98
1.24 1.26 1.31 1.36 1.40 1.41 1.40 1.43 1.47 1.53 1.58 1.61 1.58 1.58 1.60 1.59 1.56 1.53 1.52 1.53 1.52 1.54 1.57 1.55 1.56 1.57 1.56 1.58 1.58 1.58 1.59 1.62 1.65 1.67 1.75 1.72 1.69 1.70 1.69 1.68 1.67 1.67 1.67 1.69 1.76 1.85 1.88 1.87 1.89 1.93 1.98 1.91 1.87 1.83 1.86 1.86 1.85 1.79 1.72 1.67 1.63 1.61 1.60 1.62 1.63 1.61 1.59 1.59 1.58 1.64 1.69 1.68 1.61 1.55 1.51 1.50 1.48 1.45 1.42 1.36 1.28 1.19 1.11 1.05 0.95
1.33 1.35 1.40 1.42 1.42 1.45 1.45 1.44 1.44 1.47 1.54 1.57 1.60 1.62 1.60 1.60 1.61 1.61 1.68 1.73 1.69 1.64 1.61 1.61 1.64 1.68 1.68 1.64 1.58 1.56 1.61 1.62 1.70 1.85 1.89 1.87 1.79 1.74 1.69 1.67 1.72 1.73 1.74 1.79 1.87 1.89 1.87 1.84 1.80 1.81 1.80 1.76 1.69 1.65 1.64 1.61 1.61 1.67 1.68 1.70 1.71 1.64 1.57 1.55 1.51 1.52 1.55 1.57 1.55 1.57 1.62 1.61 1.55 1.54 1.50 1.48 1.46 1.42 1.39 1.32 1.26 1.18 1.12 1.06 0.95
1.34 1.34 1.38 1.38 1.41 1.35 1.42 1.44 1.46 1.46 1.47 1.50 1.52 1.57 1.65 1.67 1.67 1.66 1.68 1.70 1.72 1.74 1.71 1.68 1.73 1.75 1.73 1.77 1.81 1.69 1.67 1.78 1.89 1.88 1.88 1.85 1.78 1.69 1.64 1.63 1.66 1.70 1.73 1.79 1.85 1.82 1.78 1.76 1.78 1.79 1.79 1.77 1.72 1.69 1.69 1.67 1.67 1.69 1.74 1.75 1.74 1.70 1.65 1.61 1.57 1.56 1.58 1.58 1.58 1.59 1.62 1.61 1.53 1.49 1.46 1.43 1.44 1.41 1.36 1.29 1.20 1.14 1.09 1.01 0.92
1.41 1.42 1.42 1.39 1.41 1.43 1.43 1.46 1.47 1.44 1.43 1.44 1.44 1.42 1.44 1.55 1.59 1.59 1.59 1.62 1.62 1.62 1.63 1.65 1.69 1.71 1.69 1.65 1.73 1.78 1.79 1.82 1.81 1.77 1.73 1.72 1.74 1.72 1.67 1.63 1.61 1.62 1.67 1.70 1.69 1.69 1.69 1.70 1.71 1.71 1.74 1.76 1.78 1.81 1.82 1.79 1.79 1.78 1.78 1.80 1.79 1.77 1.74 1.71 1.68 1.66 1.65 1.66 1.65 1.62 1.62 1.61 1.53 1.48 1.42 1.43 1.39 1.34 1.30 1.26 1.20 1.13 1.07 1.00 0.92
1.26 1.26 1.28 1.36 1.34 1.37 1.39 1.41 1.39 1.38 1.40 1.42 1.40 1.38 1.34 1.35 1.43 1.48 1.45 1.43 1.46 1.47 1.49 1.51 1.54 1.55 1.57 1.54 1.49 1.46 1.50 1.52 1.52 1.52 1.53 1.55 1.55 1.55 1.55 1.55 1.57 1.60 1.62 1.65 1.55 1.52 1.55 1.53 1.54 1.58 1.62 1.63 1.65 1.66 1.67 1.71 1.74 1.79 1.81 1.77 1.78 1.79 1.77 1.74 1.78 1.76 1.72 1.69 1.62 1.59 1.61 1.59 1.51 1.44 1.43 1.43 1.35 1.27 1.24 1.19 1.16 1.12 1.06 0.98 0.91
1.18 1.17 1.13 1.13 1.14 1.15 1.19 1.17 1.22 1.23 1.23 1.20 1.21 1.14 1.14 1.12 1.06 1.11 1.27 1.16 1.07 1.01 1.00 1.02 1.05 1.11 1.18 1.25 1.31 1.30 1.29 1.30 1.31 1.31 1.33 1.36 1.40 1.44 1.47 1.50 1.51 1.51 1.53 1.49 1.45 1.43 1.46 1.49 1.49 1.54 1.56 1.52 1.56 1.62 1.60 1.61 1.67 1.71 1.71 1.73 1.76 1.79 1.81 1.86 1.89 1.82 1.73 1.67 1.63 1.60 1.61 1.55 1.47 1.45 1.43 1.36 1.28 1.21 1.20 1.17 1.14 1.11 1.04 0.96 0.88
1.11 1.13 1.14 1.14 1.13 1.13 1.13 1.13 1.12 1.10 1.08 1.10 1.04 1.06 1.04 1.03 0.99 0.90 0.91 0.94 1.03 1.09 1.11 1.10 1.09 1.09 1.09 1.09 1.07 1.06 1.06 1.07 1.08 1.10 1.12 1.15 1.19 1.24 1.28 1.31 1.36 1.41 1.42 1.37 1.39 1.41 1.44 1.44 1.42 1.43 1.47 1.52 1.58 1.63 1.66 1.69 1.73 1.74 1.75 1.75 1.75 1.74 1.76 1.81 1.80 1.74 1.71 1.65 1.62 1.61 1.54 1.51 1.48 1.40 1.34 1.29 1.25 1.20 1.16 1.15 1.15 1.07 0.99 0.91 0.83
1.07 1.04 1.05 1.10 1.11 1.07 1.07 1.07 1.06 1.05 1.03 1.02 1.03 1.02 1.00 0.96 0.95 0.93 0.93 0.90 0.90 0.92 0.97 1.11 1.15 1.12 1.08 1.06 1.06 1.06 1.07 1.08 1.07 1.07 1.06 1.05 1.05 1.06 1.09 1.08 1.09 1.17 1.26 1.30 1.33 1.37 1.41 1.42 1.42 1.47 1.52 1.55 1.63 1.66 1.66 1.77 1.78 1.78 1.77 1.75 1.78 1.77 1.83 1.82 1.77 1.76 1.69 1.69 1.65 1.56 1.54 1.52 1.45 1.38 1.31 1.24 1.18 1.13 1.13 1.12 1.09 1.07 0.97 0.86 0.78
1.20 1.14 1.12 1.11 1.09 1.09 1.08 1.05 1.03 1.01 1.01 1.04 1.06 1.05 1.04 1.04 1.00 1.01 1.01 1.04 1.03 1.01 1.02 1.07 1.11 1.11 1.08 1.06 1.05 1.04 1.04 1.05 1.05 1.05 1.04 1.05 1.06 1.05 0.97 0.96 0.96 0.96 1.02 1.11 1.21 1.32 1.42 1.50 1.56 1.59 1.65 1.72 1.78 1.86 1.85 1.89 1.91 1.93 1.91 1.83 1.81 1.82 1.82 1.81 1.79 1.77 1.74 1.64 1.55 1.54 1.53 1.47 1.43 1.33 1.28 1.22 1.18 1.13 1.10 1.08 1.05 1.01 0.96 0.87 0.79
1.15 1.13 1.11 1.14 1.14 1.12 1.12 1.08 1.06 1.05 1.05 1.09 1.10 1.10 1.08 1.07 1.06 1.08 1.08 1.08 1.06 1.04 1.03 1.04 1.05 1.08 1.12 1.11 1.06 1.05 1.05 1.04 1.04 1.05 1.05 1.05 1.07 1.06 1.01 0.98 0.97 1.01 1.05 1.07 1.15 1.23 1.33 1.45 1.58 1.65 1.71 1.72 1.78 1.86 1.91 1.88 1.87 1.95 1.96 1.92 1.85 1.73 1.75 1.76 1.76 1.79 1.72 1.58 1.55 1.52 1.47 1.42 1.35 1.30 1.24 1.17 1.15 1.14 1.11 1.07 1.01 0.96 0.89 0.83 0.78
1.13 1.08 1.10 1.13 1.16 1.14 1.13 1.13 1.10 1.12 1.14 1.15 1.12 1.10 1.08 1.08 1.10 1.10 1.08 1.09 1.07 1.03 1.01 1.04 1.04 1.03 0.97 0.99 1.07 1.06 1.04 1.06 1.08 1.08 1.10 1.09 1.10 1.10 1.09 1.06 1.05 1.01 1.03 1.11 1.19 1.23 1.26 1.37 1.50 1.59 1.69 1.75 1.80 1.88 1.91 1.90 1.89 1.90 1.91 1.90 1.88 1.83 1.78 1.78 1.79 1.71 1.60 1.55 1.53 1.47 1.42 1.37 1.33 1.26 1.21 1.17 1.13 1.11 1.09 1.05 1.00 0.93 0.85 0.80 0.75
1.20 1.16 1.15 1.14 1.14 1.18 1.18 1.16 1.17 1.18 1.18 1.18 1.16 1.14 1.10 1.09 1.10 1.10 1.11 1.13 1.11 1.08 1.07 1.07 1.05 1.02 1.03 1.06 1.06 1.10 1.08 1.04 1.04 1.06 1.10 1.13 1.16 1.15 1.12 1.10 1.09 1.10 1.14 1.18 1.23 1.28 1.32 1.37 1.47 1.57 1.63 1.69 1.77 1.92 2.00 1.93 1.88 1.89 1.93 1.88 1.83 1.79 1.78 1.76 1.70 1.64 1.55 1.51 1.45 1.42 1.38 1.34 1.29 1.25 1.19 1.15 1.14 1.11 1.06 1.00 0.95 0.88 0.82 0.76 0.72
1.26 1.23 1.21 1.21 1.20 1.18 1.18 1.18 1.17 1.18 1.17 1.18 1.17 1.17 1.15 1.13 1.14 1.14 1.15 1.13 1.13 1.11 1.09 1.05 1.04 1.06 1.10 1.11 1.10 1.12 1.08 1.09 1.11 1.12 1.12 1.13 1.15 1.17 1.17 1.15 1.15 1.16 1.18 1.24 1.29 1.33 1.38 1.44 1.53 1.61 1.70 1.76 1.85 1.91 1.94 1.85 1.83 1.90 1.91 1.89 1.88 1.84 1.76 1.66 1.59 1.47 1.44 1.46 1.43 1.40 1.35 1.29 1.27 1.26 1.20 1.16 1.14 1.09 1.03 0.94 0.90 0.87 0.81 0.76 0.72
1.29 1.29 1.27 1.27 1.26 1.27 1.25 1.25 1.24 1.22 1.23 1.22 1.23 1.23 1.22 1.22 1.23 1.23 1.19 1.15 1.13 1.11 1.10 1.09 1.10 1.15 1.16 1.17 1.19 1.20 1.18 1.17 1.17 1.17 1.17 1.17 1.19 1.20 1.21 1.22 1.22 1.20 1.21 1.25 1.31 1.38 1.40 1.42 1.49 1.60 1.69 1.74 1.81 1.83 1.81 1.86 1.90 1.88 1.86 1.83 1.78 1.66 1.62 1.52 1.52 1.52 1.51 1.47 1.41 1.38 1.34 1.30 1.26 1.21 1.17 1.14 1.09 1.05 0.99 0.96 0.91 0.85 0.79 0.73 0.67
1.29 1.29 1.30 1.30 1.30 1.27 1.26 1.26 1.27 1.30 1.30 1.29 1.30 1.27 1.27 1.28 1.28 1.24 1.21 1.21 1.18 1.15 1.13 1.15 1.18 1.21 1.22 1.24 1.25 1.26 1.25 1.25 1.24 1.22 1.23 1.24 1.25 1.26 1.27 1.27 1.29 1.29 1.28 1.28 1.32 1.37 1.42 1.47 1.54 1.62 1.68 1.73 1.75 1.78 1.83 1.84 1.83 1.84 1.81 1.69 1.61 1.56 1.52 1.52 1.53 1.51 1.47 1.43 1.38 1.33 1.29 1.26 1.22 1.19 1.13 1.12 1.04 1.01 0.97 0.91 0.86 0.82 0.76 0.68 0.63
1.29 1.30 1.29 1.29 1.28 1.27 1.27 1.30 1.32 1.31 1.31 1.31 1.32 1.32 1.31 1.28 1.27 1.26 1.25 1.25 1.23 1.22 1.21 1.20 1.20 1.25 1.26 1.27 1.29 1.29 1.30 1.29 1.28 1.27 1.28 1.30 1.33 1.34 1.31 1.31 1.32 1.34 1.35 1.37 1.39 1.41 1.44 1.50 1.57 1.64 1.74 1.80 1.83 1.83 1.80 1.79 1.80 1.77 1.68 1.54 1.51 1.55 1.53 1.51 1.49 1.46 1.41 1.36 1.33 1.29 1.24 1.20 1.16 1.12 1.10 1.06 1.02 0.97 0.92 0.88 0.83 0.77 0.72 0.66 0.61
1.28 1.28 1.27 1.27 1.29 1.29 1.31 1.32 1.30 1.30 1.30 1.31 1.32 1.31 1.29 1.30 1.31 1.30 1.26 1.25 1.24 1.24 1.24 1.23 1.23 1.23 1.25 1.31 1.32 1.31 1.30 1.30 1.30 1.29 1.30 1.33 1.38 1.39 1.37 1.37 1.37 1.39 1.39 1.40 1.41 1.43 1.44 1.48 1.57 1.71 1.76 1.74 1.76 1.78 1.80 1.77 1.72 1.67 1.61 1.56 1.54 1.54 1.49 1.45 1.42 1.38 1.35 1.29 1.25 1.20 1.16 1.13 1.11 1.08 1.06 1.03 0.99 0.94 0.90 0.84 0.79 0.73 0.69 0.64 0.60
1.30 1.28 1.28 1.27 1.27 1.28 1.29 1.30 1.30 1.27 1.26 1.26 1.24 1.23 1.24 1.27 1.28 1.28 1.26 1.23 1.23 1.24 1.25 1.25 1.26 1.25 1.26 1.29 1.32 1.32 1.33 1.33 1.32 1.30 1.30 1.32 1.35 1.40 1.42 1.41 1.40 1.40 1.40 1.38 1.37 1.35 1.39 1.43 1.49 1.59 1.65 1.66 1.71 1.72 1.74 1.71 1.66 1.63 1.63 1.59 1.52 1.46 1.42 1.39 1.37 1.33 1.25 1.18 1.15 1.14 1.11 1.08 1.05 1.02 1.00 0.99 0.97 0.93 0.87 0.80 0.74 0.69 0.65 0.61 0.58
1.29 1.29 1.28 1.27 1.27 1.28 1.28 1.27 1.27 1.24 1.19 1.17 1.15 1.14 1.16 1.17 1.17 1.18 1.18 1.19 1.20 1.21 1.22 1.23 1.25 1.27 1.29 1.31 1.35 1.35 1.35 1.34 1.33 1.33 1.34 1.36 1.37 1.40 1.44 1.43 1.43 1.42 1.45 1.46 1.47 1.45 1.42 1.42 1.42 1.43 1.46 1.52 1.59 1.62 1.68 1.69 1.71 1.70 1.65 1.57 1.48 1.40 1.34 1.31 1.28 1.22 1.18 1.16 1.12 1.09 1.06 1.02 0.99 1.00 0.99 0.98 0.95 0.91 0.83 0.77 0.72 0.68 0.64 0.61 0.58
1.29 1.28 1.26 1.25 1.24 1.24 1.24 1.24 1.20 1.17 1.16 1.14 1.14 1.13 1.13 1.14 1.15 1.17 1.17 1.18 1.19 1.22 1.23 1.23 1.23 1.24 1.27 1.30 1.32 1.35 1.36 1.35 1.34 1.34 1.35 1.36 1.36 1.37 1.40 1.43 1.42 1.42 1.45 1.49 1.49 1.50 1.49 1.48 1.50 1.53 1.53 1.55 1.60 1.64 1.68 1.70 1.64 1.57 1.52 1.46 1.40 1.36 1.33 1.29 1.24 1.20 1.17 1.15 1.11 1.06 1.03 1.01 0.99 0.97 0.99 0.97 0.91 0.83 0.77 0.74 0.71 0.68 0.63 0.60 0.58
1.25 1.25 1.24 1.23 1.21 1.19 1.17 1.15 1.12 1.11 1.10 1.10 1.10 1.11 1.11 1.13 1.15 1.16 1.16 1.16 1.16 1.18 1.20 1.20 1.21 1.24 1.27 1.30 1.33 1.37 1.40 1.41 1.43 1.42 1.42 1.41 1.42 1.44 1.42 1.43 1.43 1.44 1.47 1.50 1.57 1.57 1.55 1.55 1.55 1.56 1.55 1.56 1.56 1.56 1.58 1.58 1.53 1.49 1.45 1.41 1.38 1.35 1.31 1.28 1.24 1.19 1.17 1.14 1.11 1.08 1.05 1.02 1.01 0.99 0.96 0.91 0.84 0.81 0.76 0.73 0.68 0.63 0.59 0.58 0.57
1.15 1.15 1.14 1.15 1.14 1.13 1.12 1.10 1.10 1.11 1.11 1.11 1.10 1.09 1.10 1.10 1.10 1.12 1.14 1.15 1.15 1.16 1.17 1.18 1.20 1.24 1.27 1.31 1.35 1.38 1.41 1.41 1.43 1.46 1.45 1.44 1.44 1.45 1.43 1.46 1.48 1.52 1.54 1.55 1.59 1.63 1.61 1.65 1.63 1.61 1.56 1.54 1.51 1.51 1.50 1.48 1.45 1.41 1.37 1.37 1.39 1.31 1.26 1.24 1.20 1.17 1.14 1.13 1.11 1.08 1.05 1.02 0.99 0.96 0.92 0.85 0.80 0.77 0.74 0.70 0.64 0.61 0.61 0.58 0.57
1.12 1.12 1.10 1.08 1.07 1.06 1.07 1.09 1.09 1.09 1.09 1.10 1.08 1.05 1.05 1.05 1.05 1.05 1.07 1.08 1.11 1.14 1.18 1.21 1.24 1.28 1.31 1.33 1.36 1.39 1.40 1.39 1.40 1.42 1.43 1.44 1.44 1.42 1.42 1.42 1.44 1.49 1.54 1.57 1.59 1.63 1.66 1.70 1.69 1.64 1.59 1.54 1.48 1.45 1.43 1.41 1.38 1.36 1.39 1.40 1.36 1.27 1.20 1.18 1.15 1.11 1.11 1.11 1.09 1.08 1.05 1.02 0.99 0.94 0.88 0.83 0.78 0.73 0.69 0.66 0.65 0.63 0.60 0.58 0.55
1.10 1.08 1.07 1.04 1.03 1.02 1.01 1.01 1.00 1.01 1.03 1.03 1.02 1.00 0.97 0.97 0.99 1.01 1.03 1.04 1.05 1.09 1.14 1.19 1.23 1.26 1.29 1.32 1.34 1.36 1.39 1.42 1.43 1.44 1.45 1.45 1.45 1.44 1.39 1.38 1.39 1.44 1.54 1.59 1.60 1.57 1.61 1.64 1.69 1.64 1.58 1.55 1.48 1.50 1.46 1.45 1.42 1.37 1.35 1.32 1.24 1.17 1.15 1.14 1.12 1.11 1.12 1.12 1.11 1.08 1.05 1.00 0.94 0.88 0.82 0.77 0.76 0.73 0.69 0.66 0.63 0.61 0.59 0.58 0.57
Wind_Speed
28 28 28 28 28 27 27 26 26 25 25 25 24 24 23 23 23 22 22 22 21 21 21 21 20 20 20 19 19 18 19 19 19 19 19 18 18 18 18 17 17 16 16 16 14 13 12 12 12 11 11 10 9 8 8 8 9 8 8 8 8 9 9 9 10 10 10 10 11 12 11 11 12 12 12 12 13 14 14 15 16 16 17 17 17
26 27 27 27 28 27 27 26 25 25 25 25 25 24 24 24 23 23 22 22 22 22 22 22 21 21 20 20 20 19 19 19 19 19 20 20 20 19 19 19 18 18 18 17 17 15 14 14 14 13 13 11 10 10 9 9 10 9 9 9 9 9 9 9 10 10 11 11 11 12 12 11 12 13 13 14 14 15 15 16 16 17 17 18 18
26 26 26 27 27 27 27 26 26 26 26 25 25 25 24 23 23 23 23 22 22 22 22 22 22 22 21 21 21 20 20 20 20 20 21 21 21 21 21 21 20 20 19 19 18 17 16 15 15 15 14 13 12 12 11 10 11 10 10 10 10 10 10 10 11 11 12 12 12 12 12 12 13 14 14 15 15 15 16 16 17 18 18 19 19
26 26 26 26 26 27 26 26 26 26 26 26 26 25 24 23 23 23 23 23 23 23 23 22 22 22 22 22 22 22 21 21 21 21 21 22 22 22 22 22 22 21 21 20 20 19 18 17 17 16 16 15 14 14 13 12 12 12 11 11 11 11 11 11 12 12 13 13 13 13 13 14 14 14 15 16 16 17 17 18 18 19 19 19 20
26 26 26 27 26 26 26 26 27 27 27 26 26 25 25 24 23 24 24 23 23 23 23 23 23 23 23 23 22 22 22 22 22 22 22 22 23 23 23 23 23 23 22 22 21 21 20 19 19 18 18 17 16 16 15 14 13 13 13 12 12 12 12 12 12 13 13 14 14 14 14 15 15 15 16 17 17 18 18 19 19 19 20 20 20
26 26 27 27 27 27 27 27 27 27 27 26 26 25 25 24 24 24 24 24 24 23 23 23 23 23 23 23 23 23 23 23 23 23 23 23 23 24 24 25 25 25 24 23 23 23 23 22 21 20 20 19 18 18 17 16 15 15 14 13 12 13 13 12 13 13 14 15 15 15 15 15 16 16 17 17 18 18 19 19 20 20 20 20 21
27 27 27 28 28 27 27 27 27 27 27 26 26 26 25 25 24 24 24 24 24 23 23 23 23 23 23 23 23 23 23 24 24 24 24 24 24 24 25 26 26 26 26 25 24 24 24 24 23 23 22 21 21 20 19 18 17 17 16 15 14 14 14 14 14 14 14 15 16 16 16 16 17 17 18 18 18 19 19 19 20 20 20 20 20
28 28 27 28 28 28 28 27 27 27 26 26 26 26 25 25 24 23 23 23 24 23 23 23 23 23 23 23 23 23 23 23 24 24 24 24 24 25 25 26 27 27 27 27 26 25 25 25 25 25 24 23 23 22 21 20 19 19 18 17 16 16 15 15 15 15 15 16 16 17 17 18 18 18 19 19 19 20 20 20 20 20 20 20 20
29 28 28 28 29 28 28 28 27 27 27 26 26 26 26 25 24 24 23 23 23 23 23 23 23 23 23 23 23 23 23 23 24 24 24 25 25 25 25 26 27 27 27 27 27 27 26 26 27 26 26 25 25 24 23 22 21 20 20 19 19 18 17 16 16 17 17 17 17 18 18 19 19 19 19 19 19 20 20 20 20 20 20 20 21
28 28 28 29 29 29 29 28 28 28 27 27 27 27 26 26 25 25 24 23 23 23 23 23 22 22 23 23 23 23 23 23 24 24 25 25 25 25 25 26 27 28 28 28 28 28 27 27 27 27 27 27 26 26 25 24 23 22 22 21 21 20 19 18 18 18 18 18 18 19 19 19 19 19 20 20 20 20 20 20 20 20 20 21 21
26 28 28 28 29 29 29 29 29 28 28 27 27 27 27 27 26 26 25 24 24 23 24 24 23 22 22 23 23 23 24 24 24 24 25 26 26 26 26 26 27 28 29 29 29 29 29 28 28 28 28 28 28 28 27 26 25 24 23 23 22 22 21 21 20 20 20 20 20 20 20 20 19 19 20 20 20 20 20 20 21 21 21 21 22
25 26 27 28 28 29 29 29 29 29 29 28 28 28 28 28 27 27 27 27 26 26 25 25 25 24 23 23 23 23 24 24 24 25 25 26 27 27 27 27 27 28 29 30 30 30 30 30 29 28 29 29 29 29 29 28 27 27 25 24 24 24 24 23 22 21 21 21 21 21 21 20 20 19 19 19 20 20 21 21 21 21 22 22 23
24 24 26 27 27 28 29 29 30 29 29 29 28 28 28 29 28 28 28 28 28 28 27 27 27 26 25 24 24 24 24 25 25 25 26 26 27 27 27 27 27 28 29 30 31 31 31 31 30 30 29 30 30 30 30 29 29 29 28 26 26 26 26 25 24 23 22 22 22 22 22 21 21 20 20 20 20 21 21 21 22 22 23 23 23
24 23 24 25 26 27 28 28 29 29 28 28 28 29 29 29 29 29 28 28 28 29 29 28 28 28 27 26 25 25 25 25 25 26 26 26 28 28 28 28 28 28 29 30 31 31 32 32 32 32 31 31 31 31 31 31 30 30 30 29 28 27 27 27 26 25 24 24 24 24 24 24 23 22 22 21 22 22 22 22 23 23 23 23 23
23 22 23 24 25 26 26 27 27 27 27 27 28 28 28 28 28 28 28 28 28 28 29 28 28 28 28 27 26 25 25 24 25 26 26 27 27 28 29 28 28 29 29 29 30 31 32 33 33 33 33 33 32 32 32 32 32 32 32 31 30 29 29 29 28 27 27 27 26 26 26 26 26 25 24 23 23 23 23 23 24 24 24 24 24
23 22 22 23 24 24 25 25 26 26 26 26 26 27 27 27 27 27 27 27 26 27 27 27 27 27 27 27 26 26 25 25 25 25 26 27 27 28 29 29 29 29 30 30 30 30 31 32 33 34 34 34 34 34 34 33 33 33 33 33 32 31 31 30 30 29 29 29 28 28 27 27 27 26 25 24 24 24 24 24 24 24 24 24 24
23 23 22 22 23 23 24 24 24 24 24 24 25 25 25 26 26 26 26 26 25 25 26 26 26 26 27 27 27 27 26 25 25 26 26 27 28 29 30 30 30 30 31 31 31 31 30 31 33 34 35 35 34 35 35 35 34 34 34 33 33 33 32 32 31 31 31 30 29 29 29 28 27 26 26 25 25 25 25 25 24 24 24 24 24
24 24 24 23 23 23 23 24 24 24 24 24 24 24 25 25 25 26 26 26 25 25 25 26 26 26 27 28 28 27 27 26 26 26 27 27 28 29 30 30 31 32 32 32 33 33 33 32 33 34 34 35 35 35 36 36 35 35 34 34 35 34 34 33 32 32 32 31 30 30 30 30 29 28 28 27 26 26 26 26 25 25 24 24 24
23 24 24 24 24 24 24 24 25 25 25 25 25 25 25 25 26 26 27 27 27 27 26 26 27 27 28 28 28 28 28 28 27 27 28 28 29 30 30 31 32 33 33 34 34 35 35 34 34 35 35 35 35 35 36 37 37 36 35 36 36 36 35 35 33 32 32 32 32 31 31 31 31 31 30 29 28 27 27 26 26 25 25 25 24
22 22 23 25 26 26 25 25 25 25 25 25 25 25 26 26 26 27 27 27 27 28 28 28 28 28 28 29 29 29 30 29 28 29 29 29 30 31 31 32 33 34 35 35 35 36 36 35 35 36 37 37 36 36 37 38 38 37 37 37 37 36 36 35 34 33 33 34 34 33 33 33 33 32 31 31 30 29 28 27 27 26 25 24 24
23 22 22 24 26 27 26 26 26 25 25 25 26 26 26 26 27 27 27 27 27 28 28 29 29 29 29 29 30 30 31 31 30 30 30 30 31 31 32 32 34 35 35 36 36 36 36 37 37 38 38 38 39 38 38 39 39 39 38 38 38 37 36 36 35 34 34 34 35 34 34 33 33 32 32 31 31 30 28 28 28 27 25 25 25
24 23 23 23 25 26 27 27 26 26 26 26 26 26 26 26 26 27 27 27 28 28 29 29 29 29 30 30 31 31 31 32 32 32 32 32 32 33 33 33 34 35 35 36 37 37 38 39 39 39 39 39 40 41 40 40 40 40 40 39 38 37 37 36 35 34 34 34 35 34 33 33 32 32 31 31 31 30 29 29 28 27 27 26 26
24 24 24 23 24 25 27 27 27 27 27 27 27 27 27 27 27 27 28 28 29 29 30 30 30 31 31 31 31 32 32 33 33 33 33 33 34 34 35 35 35 36 36 36 36 38 39 40 39 40 40 40 41 42 42 42 42 42 41 41 40 39 38 37 36 35 35 34 34 33 33 33 32 31 31 30 30 29 29 29 28 28 28 27 25
23 23 23 23 24 25 26 27 27 27 27 28 28 28 28 28 28 28 29 29 30 30 31 32 32 32 32 32 33 33 33 34 34 34 34 35 35 36 36 37 37 37 38 39 38 38 39 40 40 40 41 42 43 44 44 44 44 43 43 42 41 40 39 38 37 36 35 34 33 32 33 33 32 31 31 31 29 28 28 28 27 27 27 26 24
21 22 22 22 23 24 24 25 27 27 27 28 28 28 29 29 29 29 29 30 31 31 32 32 32 33 33 34 34 34 35 35 36 36 36 36 37 38 38 39 40 40 40 41 41 40 40 40 40 41 41 42 43 43 44 45 45 44 43 42 42 41 40 39 38 37 36 35 34 33 33 33 32 32 31 31 30 29 28 28 27 27 26 25 24
21 21 21 21 22 22 23 23 25 26 27 27 28 28 29 29 29 30 30 31 31 31 32 32 33 33 34 35 35 35 36 36 36 37 36 36 37 39 40 41 42 43 43 43 43 43 43 42 41 42 42 43 43 43 44 44 45 45 44 44 43 42 41 40 39 38 38 37 36 35 35 33 32 32 32 31 30 30 29 28 27 26 25 24 24
22 22 22 22 22 22 23 23 23 24 25 26 27 27 28 29 29 30 30 31 31 32 32 33 33 34 35 35 35 36 36 36 36 36 36 36 37 38 40 41 42 43 44 44 44 45 45 44 44 44 44 44 44 44 44 45 45 45 45 45 44 44 43 42 41 40 39 38 37 36 35 33 32 32 32 31 31 30 29 28 27 26 25 25 24
23 22 22 22 23 23 23 24 24 24 25 26 26 27 27 28 29 30 30 31 31 32 32 33 33 34 34 35 35 36 36 36 37 37 37 37 37 38 40 41 42 43 44 44 45 45 45 45 46 46 45 44 44 43 44 44 44 45 45 45 45 45 43 42 42 40 39 38 37 37 35 34 33 32 31 31 31 30 28 27 27 26 26 25 23
22 22 23 23 23 23 24 24 24 25 25 26 27 27 27 27 28 29 29 30 30 31 32 32 33 34 34 35 35 36 37 37 37 38 39 39 39 40 40 41 43 44 45 45 46 46 46 47 47 46 47 46 45 44 44 44 44 45 46 46 45 45 44 43 42 40 39 39 38 38 36 35 34 33 32 31 31 30 28 27 27 27 25 24 23
22 22 23 23 23 23 24 24 25 25 25 26 26 27 27 27 28 29 28 28 29 30 31 32 33 34 35 36 36 37 38 38 38 39 41 42 42 43 43 44 45 46 46 46 47 47 48 49 49 49 49 49 48 47 46 46 45 46 47 47 46 46 45 44 42 40 39 38 38 38 37 36 35 33 32 31 30 29 28 27 27 27 25 24 23
22 23 23 23 23 23 23 23 23 24 25 25 26 26 27 28 28 29 29 30 30 31 32 33 33 34 35 37 38 39 40 41 41 42 43 44 44 45 46 46 47 48 48 48 48 49 50 51 51 52 52 51 50 49 48 48 48 48 48 48 48 46 45 44 42 40 39 38 38 38 37 36 35 34 32 30 29 28 27 27 27 26 25 24 22
22 22 22 23 23 23 23 23 23 24 24 25 26 26 27 27 27 28 29 30 31 32 33 33 34 35 36 38 39 41 42 43 44 46 46 47 47 48 48 49 49 50 50 50 50 51 52 53 54 54 53 52 51 51 50 50 49 49 48 48 48 47 46 44 43 41 40 39 38 37 37 35 34 33 31 30 29 27 26 26 26 25 24 23 22
21 21 21 22 22 23 23 23 24 24 25 25 26 26 27 27 27 27 28 29 30 31 31 32 33 34 35 37 39 41 43 44 46 47 48 49 50 50 51 52 52 52 52 51 52 53 53 54 55 55 55 55 55 55 54 53 52 51 49 48 48 47 46 44 42 41 40 39 38 37 36 35 33 32 30 30 29 27 26 25 24 24 23 23 22
21 21 21 21 22 23 23 23 24 25 25 25 26 26 26 27 27 28 28 28 29 30 30 31 32 33 35 36 38 40 42 44 45 47 48 49 50 51 52 53 54 54 52 52 53 53 54 55 56 56 56 57 57 56 56 56 55 53 50 49 48 47 46 44 42 41 40 38 37 36 35 34 33 31 29 28 27 26 25 24 24 23 23 22 21
22 22 22 22 23 23 24 24 25 25 26 26 26 26 27 27 27 28 28 29 30 30 31 32 33 33 35 36 38 39 40 42 43 44 45 47 48 49 50 51 52 52 52 52 53 54 54 55 56 56 56 57 57 57 57 56 56 54 52 49 47 46 44 42 41 40 38 36 35 34 34 33 32 30 28 27 26 25 25 24 24 23 23 22 21
22 23 23 23 23 24 24 25 25 26 26 26 26 26 27 27 28 28 29 30 31 32 33 33 34 35 36 36 37 38 39 40 40 41 42 43 43 45 46 48 48 49 50 51 52 53 54 54 54 55 56 56 56 56 55 55 54 52 49 47 45 43 41 39 37 37 36 34 33 33 32 32 31 29 27 26 25 24 24 24 23 23 23 22 21
23 24 24 24 24 25 25 25 26 26 26 26 26 27 27 28 28 29 30 31 32 33 33 34 35 36 36 36 36 37 38 38 39 39 40 40 41 41 43 44 45 46 47 48 48 50 51 51 52 54 54 54 53 52 52 51 50 48 45 43 42 41 38 36 35 35 34 33 33 32 31 30 29 28 26 25 24 23 23 23 23 23 22 21 21
23 24 24 25 25 25 25 25 26 26 27 27 27 27 28 28 29 30 31 32 32 33 34 34 35 35 34 35 35 36 36 36 36 36 37 37 38 39 39 39 40 42 43 44 44 46 48 49 50 51 50 50 50 49 46 44 44 44 42 40 39 38 36 35 34 34 33 32 31 30 29 28 27 26 25 25 23 22 22 22 22 22 21 21 21
23 24 24 25 25 25 25 26 26 27 27 27 27 28 28 29 30 30 30 31 31 32 32 32 32 32 32 33 33 33 33 33 32 32 33 34 35 36 36 36 37 38 39 40 41 42 43 43 44 43 43 43 43 41 39 37 36 38 37 36 35 35 33 33 33 32 30 29 29 28 27 27 26 25 25 24 23 22 22 22 22 22 21 21 21
24 24 24 24 25 25 26 26 26 27 27 28 28 28 28 29 29 29 30 30 30 30 30 30 29 29 29 30 30 30 29 29 29 30 31 31 32 34 34 35 36 37 37 37 37 37 37 36 36 35 35 34 33 32 30 28 28 31 31 30 31 32 31 31 30 29 27 27 27 26 26 26 25 24 24 23 22 22 22 22 21 20 21 21 21
24 24 24 24 24 25 25 26 26 27 27 27 28 28 28 28 28 28 29 29 28 28 27 27 27 27 27 28 28 28 28 28 28 29 30 30 31 32 33 34 35 35 34 33 32 32 31 30 29 28 26 24 23 22 22 21 23 26 27 28 28 29 29 28 27 26 25 25 25 25 25 25 24 23 23 23 22 22 21 21 20 20 21 21 21
24 24 24 24 24 24 25 25 26 26 26 26 27 27 27 27 27 27 27 27 27 27 27 26 26 26 26 27 27 27 27 27 28 29 29 29 30 31 31 31 31 31 29 28 27 26 25 23 22 21 19 16 16 17 19 21 23 24 25 25 25 25 26 26 25 24 24 24 23 23 24 24 23 22 22 21 21 20 20 20 20 20 21 21 21
24 23 23 23 23 24 24 24 25 25 25 26 26 26 26 26 26 26 25 25 25 26 26 25 25 26 26 27 27 27 27 27 27 28 28 28 28 29 28 28 27 26 24 23 22 20 18 16 14 13 12 12 15 16 18 22 25 25 22 20 21 22 23 23 23 23 23 22 22 22 22 21 21 21 21 20 19 19 20 20 20 20 21 21 21
23 23 23 23 23 23 24 24 24 25 25 25 25 25 24 24 24 24 24 24 24 25 25 25 25 26 26 27 27 27 27 26 26 26 26 27 27 27 26 25 23 22 20 19 18 16 14 11 8 6 7 10 13 16 18 19 20 20 18 18 19 20 21 21 22 21 21 21 20 20 20 19 19 20 20 20 19 19 20 20 20 20 20 20 20
22 22 22 22 23 24 24 24 24 24 24 23 23 23 23 23 23 23 24 24 24 24 24 25 25 26 26 26 26 26 26 26 26 26 25 26 26 26 25 23 21 20 18 17 16 14 12 10 7 6 8 11 11 13 16 16 15 15 16 17 18 18 19 19 20 20 20 20 19 19 19 19 19 19 19 20 19 19 20 20 20 21 20 21 21
21 22 22 22 23 23 23 23 23 22 21 21 21 21 21 22 22 23 23 23 24 24 24 24 25 25 26 26 26 26 26 25 25 25 24 25 25 25 24 22 20 19 19 17 15 14 11 10 9 9 10 12 12 11 13 14 14 14 15 16 16 17 17 18 18 19 19 18 18 18 19 19 19 19 19 19 19 19 20 20 20 20 21 21 21
20 21 21 21 21 21 21 21 20 19 19 19 20 20 21 21 22 23 23 23 24 24 24 24 24 25 25 25 25 25 25 25 25 24 24 24 24 24 23 21 20 19 19 18 16 13 11 9 9 9 10 11 11 11 12 14 14 14 15 15 16 16 16 17 17 18 18 18 18 18 18 18 18 18 19 19 19 19 19 20 20 20 21 21 21
19 19 19 19 19 19 19 18 17 17 18 18 19 19 20 21 21 22 22 23 23 24 24 24 24 24 25 25 24 24 24 24 24 23 23 22 22 22 21 20 19 18 18 17 16 14 12 11 10 10 11 11 11 11 13 14 14 15 15 16 16 16 16 16 16 17 17 18 17 17 17 18 18 18 18 18 19 19 20 20 20 20 21 21 22
18 18 17 17 17 17 17 17 16 16 17 18 18 18 19 19 20 20 21 21 22 22 23 23 23 23 23 23 23 23 23 24 23 23 23 23 22 22 21 20 19 17 16 16 15 14 14 13 12 11 12 12 12 12 13 14 15 15 16 16 16 16 16 17 16 17 17 18 17 17 17 17 18 18 18 18 19 19 20 21 21 21 21 21 21
18 17 16 16 17 16 16 15 15 16 17 17 18 18 18 18 18 18 19 20 20 21 21 21 22 22 22 22 22 22 22 22 22 22 23 23 22 21 20 19 18 16 15 14 13 13 13 13 12 12 12 12 12 13 14 14 15 15 15 15 16 16 16 17 17 17 18 18 18 17 17 18 18 18 19 19 19 19 20 20 20 20 21 21 21
17 16 15 16 16 16 15 15 15 16 16 17 17 17 17 17 17 17 17 17 18 18 19 19 20 20 19 20 20 20 20 20 21 21 21 20 20 19 18 17 16 15 13 12 11 12 12 12 12 13 13 13 14 14 14 15 15 15 15 16 16 16 17 17 18 18 18 18 18 18 18 18 18 19 19 19 19 19 20 20 20 20 20 21 21
Wind_Direction
216 217 217 219 220 220 221 222 223 225 226 227 228 229 231 233 235 236 237 239 240 242 243 243 244 244 245 245 244 244 245 245 246 245 244 244 243 243 243 242 242 242 242 241 241 242 244 246 249 253 259 266 276 284 291 297 302 304 306 309 308 307 306 304 304 303 302 303 304 305 305 303 301 299 298 299 300 300 299 299 302 303 303 304 304
216 218 218 220 221 221 222 223 224 225 226 228 229 231 233 234 236 237 238 240 241 242 244 244 245 245 245 246 245 245 245 246 246 246 245 244 244 243 243 243 243 243 242 241 242 243 245 248 250 253 258 264 270 277 283 289 294 297 299 302 304 304 304 304 305 305 302 300 300 302 303 302 302 301 299 298 299 300 299 299 300 302 303 304 304
216 218 219 220 221 222 223 225 226 226 227 229 231 233 234 236 237 238 240 241 242 243 244 245 246 246 246 246 246 246 246 247 247 247 246 246 245 244 243 243 244 244 244 242 242 244 245 248 250 253 257 262 266 272 277 282 288 292 294 297 300 301 301 301 304 306 305 301 297 299 300 300 301 301 300 298 298 299 299 299 299 301 302 303 304
216 218 220 220 221 222 223 225 226 227 229 231 232 234 235 237 238 240 240 242 243 244 245 246 246 247 247 247 247 247 248 248 249 249 248 247 246 245 244 243 244 245 245 244 243 244 246 247 249 252 255 259 263 268 272 276 281 286 290 293 295 297 299 299 301 304 305 302 297 296 298 298 299 300 299 298 298 297 298 299 299 300 302 302 303
217 219 221 222 222 223 224 225 226 227 229 231 233 234 236 237 239 241 241 242 243 244 245 246 247 247 247 247 247 248 248 248 249 249 249 248 247 246 245 244 244 245 246 246 245 246 247 249 250 251 254 257 260 264 268 271 275 279 284 288 290 292 295 297 300 303 304 303 299 297 298 298 298 298 298 298 298 298 298 299 299 300 301 301 302
220 221 223 224 224 225 225 226 227 228 229 231 233 234 236 237 239 240 242 243 244 244 245 245 246 247 247 248 248 248 248 249 249 249 249 249 247 246 246 245 245 246 247 247 247 248 248 250 251 252 253 256 259 262 265 268 271 274 278 281 285 288 289 291 297 301 303 303 301 298 298 298 298 297 296 297 298 299 299 299 300 300 301 301 302
222 223 225 225 226 226 227 227 228 229 230 232 233 235 237 237 237 239 241 242 243 243 243 244 246 247 248 248 248 248 249 249 250 249 249 250 249 248 246 246 246 246 247 249 250 250 250 251 252 252 254 255 258 261 263 266 269 271 274 276 280 283 285 286 290 296 300 301 299 297 297 298 297 297 297 297 298 299 299 299 299 300 301 302 302
224 225 226 227 227 228 228 229 229 230 231 232 234 235 237 237 237 237 239 241 242 242 242 243 245 247 248 249 250 250 250 250 250 250 249 250 250 249 248 247 247 247 248 249 251 251 251 252 253 254 255 256 258 260 262 265 267 269 271 273 275 278 282 284 286 290 295 297 297 296 297 298 298 298 298 297 297 298 299 299 299 299 301 302 302
225 225 226 228 229 229 228 229 230 231 231 233 234 236 236 237 237 237 238 239 241 242 242 243 245 247 249 250 252 253 253 253 252 251 250 250 250 251 250 249 248 248 248 249 250 252 253 253 254 255 255 256 257 259 262 264 266 268 269 270 272 274 278 281 284 286 290 293 294 294 294 295 297 297 297 296 296 298 299 299 298 299 300 302 303
226 226 226 228 229 229 228 229 231 231 232 233 235 236 237 237 237 238 238 238 240 242 243 243 244 246 249 251 253 254 255 255 253 251 251 251 252 252 252 251 250 249 249 249 250 251 252 254 255 255 255 256 256 258 260 262 265 267 268 269 270 272 275 277 280 284 287 290 292 293 294 294 295 295 295 295 296 297 298 298 298 299 301 302 303
228 227 226 227 228 228 229 230 231 232 233 234 235 236 237 238 238 239 239 239 240 241 243 244 245 246 248 251 253 254 256 256 254 252 252 252 253 253 253 253 252 250 249 249 250 250 251 253 255 256 256 256 256 257 259 260 262 265 267 268 269 271 273 275 278 281 285 289 291 293 294 295 294 294 294 294 295 296 297 298 298 299 300 301 302
230 228 227 226 227 228 229 230 231 233 234 235 236 237 237 238 239 239 239 239 240 242 244 246 247 248 249 251 253 255 256 256 255 253 252 252 252 254 254 254 254 253 251 251 251 251 251 253 255 256 256 256 256 257 258 259 261 263 265 266 267 268 271 273 276 279 282 285 288 291 293 293 294 294 294 294 295 295 296 297 298 299 299 299 300
229 228 227 227 227 228 229 230 231 233 234 235 236 237 237 238 238 239 240 240 241 243 245 247 249 250 251 252 254 255 257 257 256 255 254 253 253 254 255 255 255 254 253 252 252 252 252 253 254 255 256 256 255 256 257 258 260 261 262 264 265 266 268 271 275 278 281 283 285 287 290 291 291 292 293 293 294 294 295 296 297 298 298 299 299
228 227 227 227 227 227 229 230 232 233 235 235 236 237 238 238 239 240 241 242 242 244 246 247 249 251 252 253 255 256 258 258 257 256 255 254 254 255 256 256 256 256 255 255 254 254 254 254 254 255 256 255 255 255 256 257 258 260 261 262 264 265 266 268 271 274 277 280 282 285 287 288 289 290 291 291 292 292 293 295 296 297 297 297 297
227 227 226 226 226 227 228 230 231 232 234 234 235 237 238 239 240 241 242 243 244 245 246 248 249 251 252 253 255 257 258 257 256 256 256 255 255 256 256 257 257 257 257 257 257 256 256 256 256 256 256 255 254 254 256 257 258 258 260 261 263 264 265 266 268 270 273 276 279 282 285 286 287 288 289 289 291 291 292 295 296 296 295 296 296
227 226 226 226 225 226 226 228 229 230 232 233 235 237 238 239 240 240 241 242 244 245 247 249 250 251 253 254 255 257 258 257 256 256 257 256 256 257 257 258 258 259 259 259 259 259 259 258 258 257 257 257 255 254 255 258 258 258 259 261 262 263 265 265 266 268 270 273 276 279 283 284 285 286 286 287 289 291 292 294 295 295 295 295 296
228 227 226 226 225 225 225 227 229 230 232 233 235 236 238 238 239 240 241 242 243 245 247 249 251 252 253 254 256 258 258 258 256 257 257 257 258 259 258 259 260 260 260 261 260 261 261 261 260 259 258 258 257 254 255 257 259 259 260 261 262 263 265 266 266 267 269 272 274 276 279 281 282 283 284 285 287 289 290 291 292 293 293 294 296
229 229 228 227 227 226 227 228 231 232 234 235 237 237 238 239 240 241 242 243 244 246 248 250 252 253 254 255 256 258 259 259 257 257 258 257 258 259 259 260 261 262 262 262 261 261 262 262 260 260 259 259 257 255 254 255 258 259 260 261 262 263 264 266 267 267 268 271 273 275 277 278 279 281 281 282 284 285 286 288 289 290 291 292 294
229 230 229 229 229 230 230 231 233 235 236 237 238 239 239 241 242 244 245 247 247 248 250 251 253 254 255 256 256 257 260 260 258 258 258 257 258 259 260 261 262 263 263 263 262 262 262 262 260 259 260 259 258 256 255 255 257 259 260 261 262 263 264 265 265 266 267 268 271 273 275 276 278 279 279 279 281 281 282 285 288 288 289 290 291
231 232 231 231 231 232 233 234 234 236 238 239 240 241 242 243 244 245 247 248 249 250 251 252 253 254 255 257 257 258 260 261 259 258 259 259 259 260 262 263 263 264 264 264 264 264 263 262 261 259 259 258 258 257 256 256 257 258 259 260 261 263 263 263 264 265 265 266 268 270 272 274 276 277 276 277 278 278 278 281 285 286 287 288 289
232 233 234 233 233 233 234 235 235 236 239 240 242 243 244 244 245 246 247 248 249 250 251 253 255 256 257 258 259 259 260 261 261 260 261 261 260 260 262 264 265 265 265 265 265 265 264 263 263 260 258 257 257 257 257 257 258 259 260 261 262 262 262 262 263 265 265 266 268 270 272 274 275 275 275 275 276 275 275 278 281 283 284 285 286
233 235 235 235 234 233 233 235 237 238 240 241 242 243 244 245 245 246 248 249 250 251 253 254 256 258 259 260 261 261 262 262 262 262 261 261 260 260 262 265 265 266 267 267 267 266 265 265 264 262 259 258 257 257 258 257 258 259 260 260 261 261 261 262 264 265 265 266 267 269 270 271 272 273 273 274 274 274 275 277 277 279 282 283 282
235 236 236 236 236 236 234 235 237 240 241 241 242 244 246 246 247 248 250 251 252 254 255 256 258 260 261 262 263 264 264 264 263 262 262 261 261 261 262 264 265 266 267 269 269 268 267 266 265 263 261 259 258 258 258 258 258 259 259 259 259 259 260 262 263 264 266 266 267 268 269 269 269 271 272 273 274 275 276 276 275 277 282 281 278
235 235 236 237 238 238 236 236 237 240 241 243 244 246 248 249 250 251 253 254 256 257 258 259 260 262 263 264 265 266 266 266 265 264 263 262 262 262 263 264 265 266 267 269 270 270 269 268 267 265 262 260 260 259 258 258 258 259 259 258 258 258 259 261 262 263 265 266 266 267 267 267 268 269 270 271 273 274 275 275 275 278 281 278 274
235 235 236 237 238 238 238 237 238 240 242 243 245 247 248 250 252 253 255 257 258 260 260 261 261 263 264 265 266 267 267 268 268 267 265 264 263 263 264 265 266 266 267 268 269 270 270 270 269 266 264 262 261 260 259 258 257 257 257 257 257 257 258 260 260 261 263 265 265 265 267 267 267 269 270 270 270 272 274 275 276 279 278 274 271
236 237 238 238 238 238 238 238 239 241 243 245 246 248 249 251 253 255 257 259 260 261 262 263 263 264 265 266 267 268 268 269 269 269 268 267 266 266 265 266 267 267 268 269 269 269 269 270 270 269 266 264 262 262 260 259 257 256 256 255 256 256 257 259 259 260 261 263 263 264 265 265 265 268 269 268 269 271 272 273 275 277 274 271 270
239 239 240 241 241 240 239 239 240 242 244 246 248 249 251 253 255 257 258 260 260 261 262 263 264 265 265 267 268 268 269 270 270 271 271 271 270 269 269 269 269 269 269 269 269 269 269 269 269 270 268 265 263 262 260 259 258 257 256 256 255 256 257 258 259 260 261 261 262 263 263 262 263 265 265 264 267 268 268 270 273 273 271 269 269
240 240 241 242 242 242 242 242 242 244 245 247 249 251 252 254 256 257 258 259 260 261 262 264 265 266 268 269 270 270 271 271 271 272 273 273 272 272 271 271 271 270 270 270 269 268 268 269 269 269 268 266 264 261 260 259 258 257 257 256 255 255 256 257 258 260 260 259 260 261 260 259 261 262 263 263 264 264 264 268 271 271 269 267 266
240 240 241 242 243 244 244 244 245 247 248 249 251 253 254 256 258 259 260 261 262 264 265 266 267 269 269 270 271 271 272 272 273 274 275 274 274 273 273 273 272 272 271 270 269 268 268 268 267 266 265 265 263 261 259 259 258 257 256 256 255 255 255 255 257 258 258 258 258 257 257 257 258 259 261 262 262 261 262 266 269 270 267 263 263
240 240 242 243 244 245 246 246 247 249 250 252 253 255 257 258 260 262 263 264 265 266 267 268 269 271 272 272 272 273 274 275 276 278 278 277 276 274 273 273 272 272 272 271 270 269 269 268 267 266 264 263 262 261 259 258 258 257 256 255 255 254 254 254 255 256 256 256 256 255 255 255 255 257 260 260 259 259 261 264 267 267 263 260 261
241 242 243 244 245 245 246 247 248 250 252 254 256 258 260 261 261 263 265 267 267 268 268 268 269 270 272 273 274 275 276 277 278 279 279 279 278 277 276 274 273 273 273 271 270 270 269 269 269 268 266 264 262 261 260 259 257 257 256 255 254 254 253 252 253 253 254 254 253 253 252 251 252 255 257 256 255 257 259 262 264 262 258 257 261
241 242 243 243 244 245 247 248 250 252 254 257 258 260 262 263 264 265 267 268 269 270 270 271 271 272 273 274 275 276 277 278 279 279 280 280 280 279 279 278 276 275 275 273 271 270 270 269 269 268 267 265 264 262 260 259 257 255 254 253 252 252 251 251 250 251 251 251 251 250 249 248 250 252 253 252 252 254 258 260 260 257 255 257 260
242 243 243 243 245 247 249 250 252 253 255 258 259 260 262 264 266 267 268 269 270 272 273 274 275 276 277 277 278 278 278 279 280 280 281 281 281 280 280 279 278 277 276 274 273 272 271 270 269 268 267 266 264 262 259 258 256 254 252 250 249 249 249 249 248 248 249 250 250 247 246 246 248 248 249 250 250 253 257 257 254 253 254 256 259
242 243 244 245 246 248 250 251 253 254 256 258 260 261 263 265 267 268 269 271 272 273 275 276 278 279 281 281 281 282 282 282 282 282 282 282 281 281 280 279 279 278 276 275 274 273 272 271 270 269 267 265 263 261 259 256 254 252 250 248 247 246 246 247 247 247 247 248 246 243 242 243 243 244 247 249 249 251 254 253 249 250 253 255 258
244 245 247 247 248 250 251 253 254 256 257 258 261 263 265 266 268 269 271 273 274 276 277 278 279 281 282 283 285 285 286 286 286 286 285 285 284 284 283 282 280 279 277 275 275 274 273 272 271 269 267 265 263 261 259 255 251 249 247 246 245 244 243 243 244 243 243 243 240 238 239 240 240 244 247 246 246 250 251 248 247 249 252 255 257
249 250 250 251 251 252 254 255 257 258 259 261 263 265 267 268 270 271 273 274 275 277 279 280 281 281 282 284 286 287 287 287 288 288 288 288 288 287 286 284 282 280 278 277 276 275 275 274 273 271 268 266 264 262 260 256 250 246 243 242 241 239 239 240 239 238 237 236 234 235 238 240 240 243 245 244 246 249 247 245 247 250 252 255 257
251 251 252 253 255 255 255 257 259 260 262 263 265 267 269 270 271 273 274 276 278 280 281 282 283 283 284 285 287 288 289 289 288 288 288 289 290 291 290 288 286 284 282 280 278 277 277 277 276 273 270 268 265 263 261 257 250 242 238 237 235 234 235 236 235 232 231 231 232 234 237 239 240 241 242 243 245 245 243 244 247 250 252 255 257
252 252 254 256 257 258 258 259 260 262 264 266 267 269 271 272 274 275 277 279 280 281 282 283 284 284 284 286 288 289 290 291 290 290 290 291 292 294 294 293 292 289 285 283 282 281 280 279 278 275 272 270 267 263 260 256 248 238 233 231 230 230 231 231 228 226 226 229 232 234 235 237 238 239 240 241 242 240 240 244 248 249 251 253 255
253 255 257 259 259 259 260 261 263 264 266 267 269 271 273 275 276 277 278 279 281 281 282 282 283 284 286 287 289 291 291 292 293 293 293 294 296 298 298 297 296 294 291 288 287 285 283 282 280 278 276 273 267 260 257 254 243 231 227 226 225 224 223 221 219 220 224 228 231 234 234 236 238 238 238 239 238 238 240 244 247 249 252 254 255
255 257 259 260 261 261 262 264 265 267 268 269 271 272 274 276 277 277 278 279 279 281 282 283 284 285 287 289 290 291 292 292 293 294 295 297 300 302 302 300 298 297 296 294 291 289 287 285 282 280 278 273 263 254 250 245 231 221 220 220 217 214 214 213 215 220 226 229 233 234 235 235 235 235 234 235 236 238 242 245 247 250 253 255 256
256 257 259 261 263 263 264 265 266 267 268 270 271 272 274 275 276 276 276 277 279 280 282 283 284 286 287 289 291 292 292 292 294 295 297 299 302 304 304 303 301 300 300 299 296 292 290 287 283 278 274 266 253 241 233 224 214 210 209 206 204 206 209 212 216 221 226 230 232 232 232 231 230 229 230 233 235 239 243 245 247 250 253 255 257
256 258 260 263 264 265 264 265 267 268 269 270 272 273 274 274 274 274 275 277 279 280 281 283 284 284 285 288 291 292 293 294 295 297 299 301 303 304 305 305 305 304 305 305 301 297 294 293 288 282 271 254 236 225 216 208 200 195 193 195 200 205 209 212 218 224 228 229 229 228 226 226 226 227 230 234 236 239 243 245 248 251 253 254 255
256 258 260 261 263 264 265 266 267 269 271 272 273 273 273 273 273 275 276 278 280 280 281 282 283 284 285 287 289 291 292 294 296 299 301 302 303 304 305 307 308 307 307 308 308 306 305 304 297 284 261 234 219 211 203 196 192 189 191 199 207 210 213 219 224 226 226 225 223 221 220 221 223 226 232 235 237 240 244 247 249 252 254 255 255
256 257 258 260 263 265 266 267 269 271 272 272 272 272 273 274 275 276 277 279 280 282 282 282 284 285 286 286 288 290 292 293 296 299 301 302 302 302 303 306 308 308 306 307 310 312 314 316 309 272 229 212 207 199 191 187 190 195 202 209 212 214 218 222 222 221 220 218 216 215 217 219 223 228 233 237 239 243 246 249 250 252 254 254 255
257 258 259 261 263 265 268 270 271 272 272 271 271 272 274 275 277 278 279 280 282 283 283 283 284 285 286 286 288 289 290 292 294 297 298 298 299 299 300 302 304 304 302 304 307 309 307 306 301 265 227 215 209 201 194 193 198 205 211 215 216 217 218 217 215 215 215 214 213 215 218 222 227 231 236 239 242 245 248 250 251 252 254 255 255
258 259 261 262 264 266 268 269 269 269 269 269 271 273 274 276 277 279 280 281 282 282 283 283 284 285 285 286 287 288 289 291 293 295 295 296 296 297 298 299 299 297 296 296 299 302 299 291 285 270 246 233 228 218 208 205 208 213 217 219 217 214 213 213 214 215 214 214 215 218 221 226 231 235 239 242 245 247 250 252 252 253 255 256 257
258 260 261 263 264 265 266 266 265 266 268 270 272 274 275 275 275 277 280 281 281 281 282 283 284 284 285 285 286 287 288 290 292 292 292 294 294 294 295 296 295 293 291 290 289 290 289 280 272 264 252 242 236 228 218 214 216 218 220 218 216 213 213 214 216 216 216 217 219 222 224 229 234 238 240 244 247 248 250 252 254 255 257 258 259
260 261 262 263 264 263 263 264 265 268 271 273 274 275 275 276 277 278 281 282 282 281 282 283 283 283 284 284 285 285 286 287 289 291 291 292 293 293 293 293 292 290 288 287 283 278 273 269 264 258 248 238 230 223 218 218 219 219 218 218 217 216 215 216 218 219 219 220 224 227 230 233 237 240 242 245 248 250 252 254 256 257 259 260 261
262 262 262 262 263 262 262 264 267 271 274 274 275 276 278 280 281 281 282 283 283 283 283 283 283 283 283 283 284 285 285 284 287 289 289 289 291 291 290 289 289 288 285 283 280 272 264 259 257 251 242 234 227 222 219 219 220 220 220 220 220 219 218 219 221 223 223 226 229 232 234 236 239 242 244 245 248 253 256 258 258 259 259 261 261
261 260 259 261 261 260 260 263 268 273 276 276 276 277 280 282 283 284 285 285 285 284 284 284 285 285 285 285 285 285 285 285 286 287 288 288 288 287 285 284 285 285 284 281 277 269 260 251 243 237 234 231 228 224 222 221 221 222 222 222 222 222 223 225 227 228 229 231 234 236 238 241 242 244 246 249 252 255 258 259 259 259 260 261 261
258 257 259 261 260 257 258 264 270 276 279 279 277 278 280 282 284 285 286 287 288 287 287 287 288 288 288 288 288 287 287 287 286 285 286 287 286 283 281 280 280 281 281 278 271 263 254 242 233 231 233 233 230 228 227 226 226 225 224 224 225 227 229 231 233 233 234 235 237 240 243 244 245 246 250 253 255 258 260 261 261 261 262 262 262